Regional Weather Roundup
Issued by NWS San Diego, CA

Home | Current Version | Previous Version | Text Only | Print | Product List | Glossary On
Versions: 1 2 3 4 5 6 7 8 9 10 11 12 13 14 15 16 17 18 19 20 21 22 23 24 25 26 27 28 29 30 31 32 33 34 35 36 37 38 39 40 41 42 43 44 45 46 47 48 49 50
000
ASUS46 KSGX 050111
RWRSGX

SAN DIEGO HOURLY WEATHER ROUNDUP
NATIONAL WEATHER SERVICE SAN DIEGO CA
600 PM PDT FRI SEP 04 2015

NOTE: "FAIR" INDICATES FEW OR NO CLOUDS BELOW 12,000 FEET WITH NO
SIGNIFICANT WEATHER AND/OR OBSTRUCTIONS TO VISIBILITY.

CAZ042-043-060-061-PZZ750-775-050200-

GREATER SAN DIEGO AREA

CITY           SKY/WX    TMP DP  RH WIND       PRES   REMARKS
LINDBERGH FLD  MOSUNNY   72  58  61 W9        29.86S
POINT LOMA       N/A     71  57  62 W10         N/A
NATIONAL CITY    N/A     72  62  71 SW3       29.86R
CHULA VISTA      N/A     72  63  72 W7        29.79R
IMPERIAL BEACH MOSUNNY   71  59  65 W9        29.86S
BROWN FIELD    MOSUNNY   70  59  68 W8        29.86R
MIRAMAR MCAS   MOSUNNY   75  57  53 W7        29.85
MONTGOMERY FLD MOSUNNY   71  58  63 W10       29.85S

$$

NORTH SAN DIEGO COUNTY

CITY           SKY/WX    TMP DP  RH WIND       PRES   REMARKS
CAMP PENDLETON SUNNY     72  58  61 W7        29.84S
OCEANSIDE AP   SUNNY     72  59  63 W9        29.84S
OCEANSIDE HBR    N/A     70  63  78 W9        29.86F
VISTA            N/A     71  61  70 W5        29.82S
CARLSBAD       SUNNY     70  60  70 SW7       29.84S
DEL MAR          N/A     71  61  71 SW3       29.88R
LA JOLLA SCRIP   N/A    N/A N/A N/A W3        29.83R
FALLBROOK        N/A     74  61  63 SW6       29.82R
ESCONDIDO        N/A     74  60  61 SW1       29.86R
SAN MARCOS       N/A     70  60  72 W9        29.82S
POWAY            N/A     76  59  56 SW2       29.84S

$$

EAST SAN DIEGO COUNTY

CITY           SKY/WX    TMP DP  RH WIND       PRES   REMARKS
RAMONA         SUNNY     72  55  55 W10       29.86S
SANTEE LAKES     N/A     74  60  61 SW3       29.83R
LA MESA          N/A     72  59  63 W7        29.78R
JAMUL            N/A     73  61  65 CALM      29.83S
CAMPO            N/A     75  52  44 SW13      29.85S

$$

ORANGE COUNTY AND THE LOS ANGELES BASIN

CITY           SKY/WX    TMP DP  RH WIND       PRES   REMARKS
JOHN WAYNE AP  SUNNY     73  57  57 S12       29.83S
LAGUNA BEACH     N/A     75  62  63 CALM      29.80S
LAKE FOREST FR   N/A     75  55  49 W3        29.73R
SANTA ANA        N/A     78  60  54 SW1       29.78S
HUNTINGTON BCH   N/A     75  62  64 W3        29.86S
LOS ALAMITOS   SUNNY     74  59  59 S8        29.83S
FULLERTON      SUNNY     76  57  51 VRB6      29.82S
LONG BEACH     SUNNY     75  56  51 S7        29.83S
L.A. AP        MOSUNNY   72  57  59 W12       29.84S
L.A. DOWNTOWN  SUNNY     75  56  51 W6        29.83R

$$

THE INLAND EMPIRE

CITY           SKY/WX    TMP DP  RH WIND       PRES   REMARKS
CORONA         SUNNY     76  56  49 W12G20    29.82S
CHINO          SUNNY     78  55  44 W16       29.83R
ONTARIO        SUNNY     78  53  41 W16       29.82S
SAN BERNARDINO SUNNY     81  48  32 SW12      29.81S
RIVERSIDE AP   SUNNY     78  54  43 W14       29.81S
MORENO VALLEY    N/A     81  59  47 W5        29.79S
MARCH ARB      SUNNY     78  55  44 NW9       29.83S
HORSETHIEF CYN   N/A     78  52  39 NW3       29.83S
PERRIS           N/A     82  55  39 W1        29.82R
MENIFEE          N/A     79  51  36 S7        29.80R
HEMET EAST       N/A     79  46  31 CALM      29.85S
FRENCH VALLEY  FAIR      75  54  46 SW8       29.85S
TEMECULA         N/A     75  59  58 SW7       29.79R

$$

SAN BERNARDINO AND RIVERSIDE COUNTY MOUNTAINS

CITY           SKY/WX    TMP DP  RH WIND       PRES   REMARKS
BIG BEAR AP    SUNNY     63  34  34 SW5       30.07S
PINE COVE        N/A     65  41  41 CALM      29.76S

$$

SOUTHERN DESERT INCLUDING THE COACHELLA VALLEY

CITY           SKY/WX    TMP DP  RH WIND       PRES   REMARKS
PALM SPRINGS   SUNNY     95  48  20 NW15      29.70S
THOUSAND PALMS   N/A     94  47  19 W15       29.66S
PALM DESERT      N/A     95  52  23 N6          N/A
THERMAL        SUNNY    100  42  13 MISG      29.61S HX  95
BLYTHE         SUNNY    100  52  19 S16       29.66S HX  97
IMPERIAL AP    SUNNY     98  52  21 W8        29.63S HX  95
EL CENTRO NAS  MOSUNNY  101  44  14 W18       29.65F HX  97
YUMA AZ        SUNNY     98  51  20 S20       29.68S HX  95
MEXICALI       MOSUNNY   97  55  24 SE16      29.66S HX  95

$$

UPPER DESERT

CITY           SKY/WX    TMP DP  RH WIND       PRES   REMARKS
VICTORVILLE AP SUNNY     79  28  15 S20G25    29.83S
HESPERIA         N/A     74  45  35 SW8       29.84S
APPLE VALLEY     N/A     76  38  25 SW17G25   29.89S
PALMDALE       SUNNY     76  44  32 W21       29.82F
LANCASTER      SUNNY     77  49  37 SW23G31   29.83R
EDWARDS AFB    SUNNY     80  40  23 SW22      29.78S
DAGGETT        SUNNY     89  15   6 W20       29.74F
29 PALMS N     SUNNY     89  34  14 SW23      29.82S
NEEDLES        PTSUNNY   99  49  18 S20G25    29.68S HX  96

$$

REGIONAL REPORTS

CITY           SKY/WX    TMP DP  RH WIND       PRES   REMARKS
SANTA BARBARA  SUNNY     74  56  53 W8        29.83S
SANDBERG       SUNNY     68  49  50 SW12      29.96S
LAS VEGAS NV   MOSUNNY   93  40  15 S15G28    29.67S
PHOENIX AZ     CLOUDY    93  58  30 S12       29.76F
TIJUANA        MOSUNNY   70  55  60 W13       29.87S
ENSENADA NW      N/A     71  32  23 W12       29.82F

$$

OFFSHORE ISLANDS

CITY           SKY/WX    TMP DP  RH WIND       PRES   REMARKS
CATALINA ARPT  SUNNY     63  55  75 SW10      29.88S
SAN NICOLAS IS SUNNY    N/A N/A N/A W18       29.86S

$$

MARINE AND OFFSHORE BUOY REPORTS

STATION/POSITION SKY/WX   TEMP    WIND        PRES    SWELL
                          AIR SEA DIR/SP/G            HT/PER/DIR
                          (F)     (DEG/KT/KT) (MB)    (FT/S/D)
TANNER BANKS               65 69  310/ 16/ 19 1011.4F   5/310/ 9
S CLEMENTE BASIN           67 71  270/ 12/ 16 1010.6S   5/210/19
SO. S. ROSA ISLA           63 66  330/ 19/ 23 1010.3S   5/10
W. S. BARBARA CH           63 66  320/ 21/ 25 1010.4R   5/300/10
M. S. BARBARA CH           67 70  270/ 14/ 17 1011.0S
S. MONICA BASIN            69 72  290/ 10/ 12 1010.4R   3/240/11
S PEDRO CHANNEL               73                N/A     2/220/11
DANA POINT                    74                N/A     2/180/20
OCEANSIDE OFFSHR              73                N/A     2/210/20
TORREY PINES OTR              74                N/A     2/210/20
LA JOLLA 1                 70 74  280/  5/  7 1010.6F
MISSION BAY BUOY              73                N/A     3/230/12
SAN DIEGO BAY                 78              1011.3F
POINT LOMA SOUTH              73                N/A     2/190/20

$$



USA.gov is the U.S. government's official web portal to all federal, state and local government web resources and services.